Weather History for Bremerton, WA

Change the Weather History Date:

Monday, November 25, 2013

  Actual Average Record
Temperature  
Mean Temperature 38 °F -  
Max Temperature 50 °F 45 °F 55 °F (2014)
Min Temperature 26 °F 34 °F 24 °F (2007)
Degree Days  
Heating Degree Days 27    
Moisture  
Dew Point 30 °F    
Average Humidity 83    
Maximum Humidity 100    
Minimum Humidity 54    
Precipitation  
Precipitation 0.00 in - - ()
Sea Level Pressure  
Sea Level Pressure 30.31 in    
Wind  
Wind Speed 1 mph (SSW)    
Max Wind Speed 8 mph    
Max Gust Speed -    
Visibility 7 miles    
Events      
Averages and records for this station are not official NWS values.
T = Trace of Precipitation, MM = Missing Value Source: NWS Daily Summary

Daily Weather History Graph

Daily Weather History Graph

Search for Another Location

Airport:

Trip Planner

Search our weather history database for the weather conditions in past years. The results will help you decide how hot, cold, wet, or windy it might be!

Date:

Astronomy

Nov. 25, 2013 Rise Set
Actual Time 7:30 AM PST 4:25 PM PST
Civil Twilight 6:56 AM PST 4:59 PM PST
Nautical Twilight 6:17 AM PST 5:38 PM PST
Astronomical Twilight 5:41 AM PST 6:14 PM PST
Moon No Moon Rise 12:33 PM PST (11/25)
Length of Visible Light 10h 03m
Length of Day
8h 54m
Waning Gibbous, 50% of the Moon is Illuminated
Nov 25
Waning Gibbous
Dec 2
New
Dec 9
First Quarter
Dec 17
Full
Dec 25
Last Quarter

Hourly Weather History & Observations

Time (PST) Temp. Windchill Dew Point Humidity Pressure Visibility Wind Dir Wind Speed Gust Speed Precip Events Conditions
12:15 AM 30.2 °F - 26.6 °F 86% 30.27 in - Calm Calm - N/A   Unknown
12:35 AM 30.2 °F - 28.4 °F 93% 30.27 in - Calm Calm - N/A   Unknown
12:55 AM 30.2 °F - 28.4 °F 93% 30.29 in - Calm Calm - N/A   Unknown
1:15 AM 30.2 °F - 28.4 °F 93% 30.29 in 1.8 mi Calm Calm - N/A   Clear
1:35 AM 30.2 °F - 28.4 °F 93% 30.28 in 7.0 mi Calm Calm - N/A   Clear
1:55 AM 32.0 °F - 28.4 °F 87% 30.29 in 8.0 mi Calm Calm - N/A   Clear
2:15 AM 32.0 °F - 30.2 °F 93% 30.30 in 4.0 mi Calm Calm - N/A   Clear
2:35 AM 30.2 °F - 28.4 °F 93% 30.29 in 5.0 mi Calm Calm - N/A   Clear
2:55 AM 30.2 °F - 28.4 °F 93% 30.29 in 0.8 mi Calm Calm - N/A   Unknown
3:15 AM 30.2 °F - 24.8 °F 80% 30.30 in 7.0 mi Calm Calm - N/A   Clear
3:35 AM 28.4 °F - 26.6 °F 93% 30.30 in 8.0 mi Calm Calm - N/A   Clear
3:55 AM 28.4 °F - 24.8 °F 86% 30.29 in 0.5 mi Calm Calm - N/A   Unknown
4:15 AM 28.4 °F - 24.8 °F 86% 30.29 in 0.5 mi Calm Calm - N/A   Mostly Cloudy
4:35 AM 28.4 °F - 24.8 °F 86% 30.31 in 0.2 mi Calm Calm - N/A   Unknown
4:55 AM 28.4 °F - 26.6 °F 93% 30.30 in 0.5 mi Calm Calm - N/A   Unknown
5:15 AM 28.4 °F - 26.6 °F 93% 30.30 in 0.8 mi Calm Calm - N/A   Unknown
5:35 AM 28.4 °F - 26.6 °F 93% 30.29 in 0.5 mi Calm Calm - N/A   Unknown
5:55 AM 28.4 °F - 26.6 °F 93% 30.30 in 0.2 mi Calm Calm - N/A   Unknown
6:15 AM 28.4 °F - 26.6 °F 93% 30.30 in 0.2 mi Calm Calm - N/A   Unknown
6:35 AM 26.6 °F - 23.0 °F 86% 30.30 in 0.2 mi Calm Calm - N/A   Unknown
6:55 AM 26.6 °F - 24.8 °F 93% 30.30 in 0.8 mi Calm Calm - N/A   Unknown
7:15 AM 26.6 °F - 24.8 °F 93% 30.31 in 0.2 mi Calm Calm - N/A   Unknown
7:35 AM 26.6 °F - 24.8 °F 93% 30.31 in 0.2 mi Calm Calm - N/A   Unknown
7:55 AM 28.4 °F - 24.8 °F 86% 30.32 in 5.0 mi Calm Calm - N/A   Clear
8:15 AM 28.4 °F - 26.6 °F 93% 30.31 in 0.2 mi Calm Calm - N/A   Unknown
8:35 AM 30.2 °F - 26.6 °F 86% 30.32 in 1.5 mi Calm Calm - N/A   Clear
8:55 AM 32.0 °F - 30.2 °F 93% 30.33 in 7.0 mi Calm Calm - N/A   Clear
9:15 AM 35.6 °F - 35.6 °F 100% 30.32 in 9.0 mi Calm Calm - N/A   Clear
9:35 AM 37.4 °F - 35.6 °F 93% 30.33 in 10.0 mi Calm Calm - N/A   Clear
9:55 AM 42.8 °F - 35.6 °F 76% 30.33 in 10.0 mi Calm Calm - N/A   Clear
10:15 AM 41.0 °F 38.0 °F 33.8 °F 76% 30.34 in 10.0 mi SSW 4.6 mph - N/A   Clear
10:35 AM 42.8 °F - 33.8 °F 70% 30.34 in 10.0 mi Calm Calm - N/A   Clear
10:55 AM 42.8 °F 39.3 °F 35.6 °F 76% 30.34 in 10.0 mi SSW 5.8 mph - N/A   Clear
11:15 AM 44.6 °F 41.4 °F 33.8 °F 66% 30.33 in 10.0 mi SSW 5.8 mph - N/A   Clear
11:35 AM 44.6 °F 40.7 °F 35.6 °F 71% 30.32 in 10.0 mi SSW 6.9 mph - N/A   Clear
11:55 AM 46.4 °F 42.9 °F 33.8 °F 62% 30.33 in 10.0 mi SSW 6.9 mph - N/A   Clear
12:15 PM 46.4 °F 42.9 °F 33.8 °F 62% 30.33 in 10.0 mi SSW 6.9 mph - N/A   Clear
12:35 PM 48.2 °F - 35.6 °F 62% 30.32 in 10.0 mi South 8.1 mph - N/A   Clear
12:55 PM 48.2 °F - 33.8 °F 58% 30.31 in 10.0 mi SSW 6.9 mph - N/A   Clear
1:15 PM 48.2 °F - 33.8 °F 58% 30.31 in 10.0 mi SW 5.8 mph - N/A   Clear
1:35 PM 48.2 °F - 33.8 °F 58% 30.31 in 10.0 mi SW 5.8 mph - N/A   Clear
1:55 PM 50.0 °F - 33.8 °F 54% 30.31 in 10.0 mi SW 5.8 mph - N/A   Clear
2:15 PM 50.0 °F - 33.8 °F 54% 30.31 in 10.0 mi SW 3.5 mph - N/A   Clear
2:35 PM 48.2 °F - 33.8 °F 58% 30.30 in 10.0 mi Calm Calm - N/A   Clear
2:55 PM 48.2 °F - 35.6 °F 62% 30.32 in 10.0 mi Calm Calm - N/A   Clear
3:15 PM 46.4 °F - 33.8 °F 62% 30.31 in 10.0 mi Calm Calm - N/A   Clear
3:35 PM 42.8 °F - 35.6 °F 76% 30.32 in 10.0 mi Calm Calm - N/A   Clear
3:55 PM 39.2 °F - 33.8 °F 81% 30.30 in 10.0 mi Calm Calm - N/A   Clear
4:15 PM 39.2 °F - 33.8 °F 81% 30.30 in 10.0 mi Calm Calm - N/A   Clear
4:35 PM 35.6 °F - 30.2 °F 81% 30.31 in 10.0 mi Calm Calm - N/A   Clear
4:55 PM 35.6 °F - 32.0 °F 87% 30.32 in 10.0 mi Calm Calm - N/A   Clear
5:15 PM 35.6 °F - 30.2 °F 81% 30.30 in 10.0 mi Calm Calm - N/A   Clear
5:35 PM 33.8 °F - 32.0 °F 93% 30.32 in 10.0 mi Calm Calm - N/A   Clear
5:55 PM 33.8 °F - 28.4 °F 81% 30.30 in 10.0 mi Calm Calm - N/A   Clear
6:15 PM 33.8 °F - 30.2 °F 87% 30.31 in 10.0 mi Calm Calm - N/A   Clear
6:35 PM 33.8 °F - 28.4 °F 81% 30.31 in 10.0 mi Calm Calm - N/A   Clear
6:55 PM 33.8 °F - 28.4 °F 81% 30.30 in 10.0 mi Calm Calm - N/A   Clear
7:15 PM 32.0 °F - 28.4 °F 87% 30.31 in 10.0 mi Calm Calm - N/A   Clear
7:35 PM 32.0 °F - 28.4 °F 87% 30.30 in 10.0 mi Calm Calm - N/A   Clear
7:55 PM 33.8 °F - 30.2 °F 87% 30.30 in 10.0 mi Calm Calm - N/A   Clear
8:15 PM 30.2 °F - 28.4 °F 93% 30.31 in - Calm Calm - N/A   Unknown
8:35 PM 30.2 °F - 26.6 °F 86% 30.30 in 10.0 mi Calm Calm - N/A   Clear
8:55 PM 30.2 °F - 28.4 °F 93% 30.30 in 9.0 mi Calm Calm - N/A   Clear
9:15 PM 30.2 °F - 28.4 °F 93% 30.30 in 1.0 mi Calm Calm - N/A   Clear
9:35 PM 30.2 °F - 26.6 °F 86% 30.31 in - Calm Calm - N/A   Unknown
9:55 PM 30.2 °F - 28.4 °F 93% 30.30 in 10.0 mi Calm Calm - N/A   Clear
10:15 PM 30.2 °F - 26.6 °F 86% 30.30 in 1.5 mi Calm Calm - N/A   Clear
10:35 PM 30.2 °F - 28.4 °F 93% 30.30 in 9.0 mi Calm Calm - N/A   Clear
10:55 PM 30.2 °F - 28.4 °F 93% 30.29 in 8.0 mi Calm Calm - N/A   Clear
11:15 PM 30.2 °F - 26.6 °F 86% 30.29 in 5.0 mi Calm Calm - N/A   Clear
11:35 PM 30.2 °F - 26.6 °F 86% 30.29 in 5.0 mi Calm Calm - N/A   Clear
11:55 PM 30.2 °F - 26.6 °F 86% 30.30 in 3.0 mi Calm Calm - N/A   Clear